Weather History for Culdrose, United Kingdom

Change the Weather History Date:

Saturday, July 12, 2014

  Actual Average Record
Temperature  
Mean Temperature 62 °F -  
Max Temperature 63 °F 63 °F 75 °F (2005)
Min Temperature 60 °F 53 °F 49 °F (2013)
Degree Days  
Heating Degree Days 4    
Growing Degree Days 12 (Base 50)    
Moisture  
Dew Point 61 °F    
Average Humidity 97    
Maximum Humidity 100    
Minimum Humidity 91    
Precipitation  
Precipitation 0.01 in - - ()
Sea Level Pressure  
Sea Level Pressure 30.00 in    
Wind  
Wind Speed 4 mph ()    
Max Wind Speed 13 mph    
Max Gust Speed -    
Visibility 1.6 miles    
Events Rain    
Averages and records for this station are not official NWS values.
T = Trace of Precipitation, MM = Missing Value Source: Averaged Metar Reports

Daily Weather History Graph

Daily Weather History Graph

Search for Another Location

Airport:

Trip Planner

Search our weather history database for the weather conditions in past years. The results will help you decide how hot, cold, wet, or windy it might be!

Date:

Astronomy

Jul. 12, 2014 Rise Set
Actual Time 5:24 AM BST 9:27 PM BST
Civil Twilight 4:41 AM BST 10:10 PM BST
Nautical Twilight 3:41 AM BST 11:10 PM BST
Astronomical Twilight 1:59 AM BST 1:14 AM BST
Moon 9:06 PM BST (7/12) 5:36 AM BST (7/12)
Length of Visible Light 17h 28m
Length of Day
16h 03m
Full, 100% of the Moon is Illuminated
Jul 12
Full
Jul 12
Full
Jul 19
Last Quarter
Jul 26
New
Aug 4
First Quarter

Hourly Weather History & Observations

Time (BST) Temp. Dew Point Humidity Pressure Visibility Wind Dir Wind Speed Gust Speed Precip Events Conditions
12:50 AM 60.8 °F 59.0 °F 94% 30.09 in 6.2 mi West 2.3 mph - N/A   Haze
1:00 AM 61 °F 59 °F 91% 30.10 in 6 mi West 2.3 mph - -   Haze
1:50 AM 60.8 °F 59.0 °F 94% 30.09 in 2.2 mi WSW 3.5 mph - N/A   Overcast
2:00 AM 61 °F 59 °F 91% 30.10 in 2 mi WSW 3.5 mph - -   Mist
2:50 AM 60.8 °F 59.0 °F 94% 30.06 in 1.9 mi West 3.5 mph - N/A Rain Light Rain
3:00 AM 60 °F 60 °F 98% 30.09 in 2 mi West 3.5 mph - - Rain Light Rain
3:50 AM 60.8 °F 59.0 °F 94% 30.06 in 1.9 mi WSW 3.5 mph - N/A   Mostly Cloudy
4:00 AM 60 °F 60 °F 98% 30.07 in 2 mi WSW 3.5 mph - - Rain Light Rain
4:50 AM 60.8 °F 60.8 °F 100% 30.04 in 2.2 mi SSW 2.3 mph - N/A   Mostly Cloudy
5:00 AM 61 °F 60 °F 96% 30.06 in 2 mi SSW 2.3 mph - -   Mist
5:50 AM 60.8 °F 60.8 °F 100% 30.04 in 0.6 mi West 3.5 mph - N/A Rain Light Rain
6:00 AM 61 °F 60 °F 97% 30.05 in 1 mi West 3.5 mph - - Rain Light Rain
6:50 AM 60.8 °F 60.8 °F 100% 30.04 in 0.6 mi West 2.3 mph - N/A   Light Drizzle
7:00 AM 61 °F 61 °F 98% 30.04 in 1 mi West 2.3 mph - - Rain Light Drizzle
7:50 AM 60.8 °F 60.8 °F 100% 30.04 in 1.9 mi WSW 4.6 mph - N/A   Mostly Cloudy
8:00 AM 61 °F 61 °F 98% 30.04 in 2 mi WSW 4.6 mph - - Rain Light Drizzle
8:50 AM 62.6 °F 60.8 °F 94% 30.04 in 2.2 mi WSW 5.8 mph - N/A   Mostly Cloudy
9:00 AM 62 °F 61 °F 95% 30.04 in 2 mi WSW 5.8 mph - -   Mist
9:50 AM 62.6 °F 60.8 °F 94% 30.01 in 2.8 mi WSW 3.5 mph - N/A   Mostly Cloudy
10:00 AM 63 °F 61 °F 92% 30.03 in 3 mi WSW 3.5 mph - -   Mist
10:50 AM 62.6 °F 60.8 °F 94% 30.01 in 1.9 mi West 6.9 mph - N/A   Mostly Cloudy
11:00 AM 62 °F 61 °F 94% 30.02 in 2 mi West 6.9 mph - -   Mist
11:13 AM 62.6 °F 60.8 °F 94% 30.01 in 0.6 mi West 6.9 mph - N/A   Overcast
11:50 AM 62.6 °F 60.8 °F 94% 30.01 in 1.6 mi West 6.9 mph - N/A   Mostly Cloudy
12:00 PM 62 °F 61 °F 94% 30.01 in 2 mi West 6.9 mph - - Rain Light Drizzle
12:50 PM 62.6 °F 60.8 °F 94% 30.01 in 2.5 mi East 3.5 mph - N/A   Mostly Cloudy
1:00 PM 62 °F 61 °F 94% 30.01 in 2 mi East 3.5 mph - -   Mist
1:50 PM 60.8 °F 60.8 °F 100% 29.98 in 1.2 mi WSW 4.6 mph - N/A   Light Drizzle
2:50 PM 60.8 °F 60.8 °F 100% 29.98 in 1.9 mi WSW 8.1 mph - N/A   Mostly Cloudy
3:50 PM 60.8 °F 60.8 °F 100% 29.98 in 0.9 mi WSW 6.9 mph - N/A Rain Light Rain
4:00 PM 61 °F 61 °F 98% 29.98 in 1 mi WSW 6.9 mph - - Rain Light Rain
4:50 PM 60.8 °F 60.8 °F 100% 29.95 in 0.6 mi WSW 8.1 mph - N/A   Light Drizzle
5:50 PM 60.8 °F 60.8 °F 100% 29.95 in 0.2 mi WSW 10.4 mph - N/A   Light Drizzle
6:50 PM 60.8 °F 60.8 °F 100% 29.92 in 0.2 mi WSW 9.2 mph - N/A   Light Drizzle
7:00 PM 61 °F 61 °F 100% 29.94 in 0 mi WSW 9.2 mph - - Rain Light Drizzle
7:50 PM 60.8 °F 60.8 °F 100% 29.92 in 1.2 mi WSW 8.1 mph - N/A   Overcast
8:50 PM 60.8 °F 60.8 °F 100% 29.92 in 0.0 mi WSW 6.9 mph - N/A   Light Drizzle
9:00 PM 61 °F 61 °F 100% 29.92 in 0 mi WSW 6.9 mph - - Rain Light Drizzle
9:50 PM 60.8 °F 60.8 °F 100% 29.92 in 0.2 mi WSW 6.9 mph - N/A   Light Drizzle
10:00 PM 61 °F 61 °F 99% 29.92 in 0 mi WSW 6.9 mph - - Rain Light Drizzle
10:50 PM 60.8 °F 60.8 °F 100% 29.89 in 1.9 mi West 12.7 mph - N/A   Light Drizzle
11:00 PM 61 °F 61 °F 98% 29.91 in 2 mi West 12.7 mph - - Rain Light Drizzle
11:50 PM 60.8 °F 60.8 °F 100% 29.89 in 1.2 mi WSW 6.9 mph - N/A   Light Drizzle